Weather History for Springfield, MO

Change the Weather History Date:

Tuesday, January 29, 2013

  Actual Average Record
Temperature  
Mean Temperature 57 °F 33 °F  
Max Temperature 69 °F 44 °F 74 °F (1947)
Min Temperature 45 °F 23 °F -12 °F (1979)
Degree Days  
Heating Degree Days 8 32  
Month to date heating degree days 801 943  
Since 1 July heating degree days 2448 2753  
Cooling Degree Days 0 0  
Month to date cooling degree days 0 0  
Year to date cooling degree days 0 0  
Growing Degree Days 8 (Base 50)    
Moisture  
Dew Point 55 °F    
Average Humidity 87    
Maximum Humidity 100    
Minimum Humidity 73    
Precipitation  
Precipitation 1.65 in 0.07 in 2.10 in (1969)
Month to date precipitation 3.05 2.31  
Year to date precipitation 3.05 2.31  
Snow  
Snow 0.00 in - - ()
Month to date snowfall 0.1  
Since 1 July snowfall 1.4  
Snow Depth 0.00 in    
Sea Level Pressure  
Sea Level Pressure 29.56 in    
Wind  
Wind Speed 12 mph (SSE)    
Max Wind Speed 32 mph    
Max Gust Speed 42 mph    
Visibility 8 miles    
Events Rain , Thunderstorm    
T = Trace of Precipitation, MM = Missing Value Source: NWS Daily Summary

Daily Weather History Graph

Daily Weather History Graph

Search for Another Location

Airport:

Trip Planner

Search our weather history database for the weather conditions in past years. The results will help you decide how hot, cold, wet, or windy it might be!

Date:

Astronomy

Jan. 29, 2013 Rise Set
Actual Time 7:18 AM CST 5:35 PM CST
Civil Twilight 6:51 AM CST 6:02 PM CST
Nautical Twilight 6:19 AM CST 6:34 PM CST
Astronomical Twilight 5:49 AM CST 7:04 PM CST
Moon 8:26 PM CST (1/29) 8:20 AM CST (1/29)
Length of Visible Light 11h 11m
Length of Day
10h 16m
Waning Gibbous, 93% of the Moon is Illuminated
Jan 29
Waning Gibbous
Feb 3
Last Quarter
Feb 10
New
Feb 17
First Quarter
Feb 25
Full

Hourly Weather History & Observations

Time (CST) Temp. Windchill Dew Point Humidity Pressure Visibility Wind Dir Wind Speed Gust Speed Precip Events Conditions
12:52 AM 64.0 °F - 57.9 °F 80% 29.76 in 10.0 mi South 16.1 mph - N/A   Mostly Cloudy
1:52 AM 64.9 °F - 57.9 °F 78% 29.75 in 10.0 mi SSE 13.8 mph - N/A   Mostly Cloudy
2:52 AM 64.9 °F - 57.9 °F 78% 29.75 in 10.0 mi South 15.0 mph - N/A   Overcast
3:52 AM 64.9 °F - 57.9 °F 78% 29.74 in 10.0 mi South 16.1 mph 24.2 mph N/A   Overcast
4:39 AM 66.0 °F - 57.9 °F 75% 29.75 in 10.0 mi South 18.4 mph - N/A   Mostly Cloudy
4:52 AM 66.0 °F - 57.9 °F 75% 29.72 in 10.0 mi South 19.6 mph - N/A   Overcast
5:52 AM 66.0 °F - 57.9 °F 75% 29.71 in 10.0 mi South 17.3 mph 29.9 mph N/A   Overcast
6:52 AM 64.9 °F - 57.9 °F 78% 29.68 in 10.0 mi South 17.3 mph - N/A   Mostly Cloudy
7:52 AM 64.9 °F - 57.9 °F 78% 29.66 in 10.0 mi South 18.4 mph - N/A   Mostly Cloudy
8:00 AM 64.9 °F - 57.9 °F 78% 29.68 in 10.0 mi SSE 17.3 mph - N/A   Scattered Clouds
8:52 AM 64.0 °F - 57.9 °F 80% 29.66 in 10.0 mi SSE 13.8 mph - N/A   Overcast
9:52 AM 66.0 °F - 59.0 °F 78% 29.65 in 10.0 mi South 15.0 mph - N/A   Overcast
10:52 AM 66.9 °F - 59.0 °F 76% 29.60 in 10.0 mi South 16.1 mph 23.0 mph N/A   Overcast
11:10 AM 69.1 °F - 59.0 °F 70% 29.62 in 10.0 mi South 20.7 mph 31.1 mph N/A   Overcast
11:52 AM 66.9 °F - 60.1 °F 79% 29.55 in 9.0 mi South 20.7 mph 27.6 mph 0.00 in Rain Light Rain
11:56 AM 66.0 °F - 60.1 °F 81% 29.58 in 7.0 mi South 17.3 mph 27.6 mph 0.00 in Rain , Thunderstorm Thunderstorms and Rain
12:18 PM 66.9 °F - 60.1 °F 79% 29.54 in 10.0 mi SSE 16.1 mph 26.5 mph 0.03 in Thunderstorm Thunderstorm
12:30 PM 64.9 °F - 60.1 °F 84% 29.53 in 6.0 mi South 29.9 mph 36.8 mph 0.03 in Rain , Thunderstorm Light Rain
12:49 PM 62.6 °F - 60.8 °F 94% 29.50 in 10.0 mi South 24.2 mph 29.9 mph 0.05 in Rain , Thunderstorm Light Thunderstorms and Rain
12:52 PM 64.0 °F - 60.1 °F 87% 29.49 in 10.0 mi South 27.6 mph - 0.05 in Rain , Thunderstorm Light Thunderstorms and Rain
1:04 PM 64.0 °F - 60.1 °F 87% 29.50 in 7.0 mi South 27.6 mph 41.4 mph 0.00 in Rain , Thunderstorm Light Rain
1:20 PM 63.0 °F - 60.1 °F 90% 29.53 in 2.0 mi SW 16.1 mph - 0.05 in Rain , Thunderstorm Heavy Rain
1:23 PM 63.0 °F - 60.1 °F 90% 29.53 in 2.0 mi West 13.8 mph - 0.06 in Rain , Thunderstorm Thunderstorms and Rain
1:30 PM 57.9 °F - 55.0 °F 90% 29.54 in 2.0 mi West 19.6 mph 28.8 mph 0.07 in Rain , Thunderstorm Thunderstorms and Rain
1:35 PM 55.9 °F - 53.1 °F 90% 29.53 in 2.0 mi NW 11.5 mph 26.5 mph 0.16 in Rain , Thunderstorm Heavy Thunderstorms and Rain
1:40 PM 55.9 °F - 54.0 °F 93% 29.54 in 2.0 mi West 12.7 mph 24.2 mph 0.26 in Rain , Thunderstorm Heavy Rain
1:52 PM 55.0 °F - 54.0 °F 96% 29.54 in 2.0 mi Calm Calm - 0.50 in Rain , Thunderstorm Rain
1:57 PM 55.0 °F - 54.0 °F 96% 29.54 in 4.0 mi North 4.6 mph - 0.00 in Rain , Thunderstorm Rain
2:09 PM 55.0 °F - 53.1 °F 93% 29.52 in 6.0 mi NNE 6.9 mph - 0.04 in Rain , Thunderstorm Rain
2:19 PM 55.0 °F - 53.1 °F 93% 29.53 in 9.0 mi NE 3.5 mph - 0.04 in Rain Light Rain
2:52 PM 55.0 °F - 54.0 °F 96% 29.52 in 7.0 mi East 5.8 mph - 0.12 in Rain Light Rain
3:52 PM 54.0 °F - 53.1 °F 97% 29.52 in 3.0 mi SE 5.8 mph - 0.15 in Rain , Thunderstorm Heavy Rain
4:03 PM 54.0 °F - 53.1 °F 97% 29.50 in 2.5 mi East 8.1 mph - 0.07 in Rain , Thunderstorm Heavy Rain
4:10 PM 54.0 °F - 53.1 °F 97% 29.50 in 3.0 mi ENE 4.6 mph - 0.10 in Rain , Thunderstorm Rain
4:17 PM 54.0 °F - 53.1 °F 97% 29.52 in 2.5 mi East 5.8 mph - 0.15 in Rain , Thunderstorm Heavy Thunderstorms and Rain
4:23 PM 54.0 °F - 53.1 °F 97% 29.53 in 3.0 mi SE 6.9 mph - 0.17 in Rain , Thunderstorm Thunderstorms and Rain
4:52 PM 54.0 °F - 53.1 °F 97% 29.50 in 5.0 mi ENE 4.6 mph - 0.27 in Rain , Thunderstorm Thunderstorms and Rain
5:01 PM 54.0 °F - 53.1 °F 97% 29.51 in 6.0 mi ENE 4.6 mph - 0.02 in Rain Light Rain
5:38 PM 53.1 °F - 53.1 °F 100% 29.52 in 10.0 mi SE 4.6 mph - 0.08 in Rain , Thunderstorm Light Rain
5:52 PM 53.1 °F - 53.1 °F 100% 29.49 in 10.0 mi Calm Calm - 0.09 in Rain Light Rain
6:52 PM 53.1 °F - 52.0 °F 96% 29.52 in 10.0 mi SE 4.6 mph - 0.14 in Rain Light Rain
7:52 PM 53.1 °F - 52.0 °F 96% 29.50 in 10.0 mi SE 8.1 mph - 0.01 in Rain Light Rain
8:52 PM 52.0 °F - 51.1 °F 97% 29.47 in 10.0 mi SE 8.1 mph - 0.03 in Rain Light Rain
9:52 PM 52.0 °F - 51.1 °F 97% 29.45 in 8.0 mi SSE 10.4 mph - 0.05 in Rain Rain
10:37 PM 52.0 °F - 50.0 °F 93% 29.50 in 7.0 mi South 11.5 mph - 0.07 in Rain Light Rain
10:52 PM 51.1 °F - 50.0 °F 96% 29.50 in 9.0 mi South 11.5 mph - 0.09 in Rain Light Rain
11:16 PM 48.0 °F - 45.0 °F 89% 29.53 in 7.0 mi West 15.0 mph 24.2 mph 0.12 in Rain Rain
11:21 PM 46.9 °F - 45.0 °F 93% 29.51 in 8.0 mi West 10.4 mph 24.2 mph 0.13 in Rain Rain
11:52 PM 46.0 °F 41.4 °F 45.0 °F 96% 29.43 in 10.0 mi East 9.2 mph - 0.15 in   Mostly Cloudy